Regional Weather Roundup
Issued by NWS

Home | Current Version | Previous Version | Text Only | Print | Product List | Glossary Off
Versions: 1 2 3 4 5 6 7 8 9 10 11 12 13 14 15 16 17 18 19 20 21 22 23 24 25 26 27 28 29 30 31 32 33 34 35 36 37 38 39 40 41 42 43 44 45 46 47 48 49 50

000
ASUS43 KFSD 261710
RWRSD

WEATHER ROUNDUP FOR SOUTH DAKOTA
NATIONAL WEATHER SERVICE SIOUX FALLS SD
1100 AM CST THU FEB 26 2015

NOTE: "FAIR" INDICATES FEW OR NO CLOUDS BELOW 12,000 FEET WITH NO
SIGNIFICANT WEATHER AND/OR OBSTRUCTIONS TO VISIBILITY.


SDZ001>005-009-010-012>017-261800-
NORTHWEST AND NORTH CENTRAL SOUTH DAKOTA

CITY           SKY/WX    TMP DP  RH WIND       PRES   REMARKS
BUFFALO          N/A      0  -8  69 NW9       30.38R WCI -15
FAITH            N/A      2  -5  72 N10       30.48R WCI -14
MOBRIDGE       SUNNY      0  -9  65 NW9       30.53R WCI -15
$$

SDZ012>016-024>037-041>051-057-063-072>074-261800-
SOUTHWEST AND SOUTH CENTRAL SOUTH DAKOTA

CITY           SKY/WX    TMP DP  RH WIND       PRES   REMARKS
RAPID CTY ARPT MOSUNNY    1  -5  75 N15       30.42S WCI -18
PIERRE         PTSUNNY    2  -6  69 N10       30.56R WCI -14
CUSTER         SUNNY      8 -15  34 NE5       30.14R WCI   0
ELLSWORTH AFB  MOSUNNY    1  -5  74 N14       30.42R WCI -17
PHILIP         SUNNY      5  -4  66 N10       30.52S WCI -10
PINE RIDGE     PTSUNNY    8   0  69 N9        30.40R WCI  -5
WINNER         CLOUDY     5  -6  60 N12       30.51R HAZE    WCI -11
$$

SDZ004>011-016>023-039-040-261800-
NORTHEAST SOUTH DAKOTA

CITY           SKY/WX    TMP DP  RH WIND       PRES   REMARKS
ABERDEEN       SUNNY     -1 -11  62 N13       30.58R WCI -19
WATERTOWN      SUNNY     -2 -10  69 NW13      30.47R WCI -20
SISSETON         N/A     -3 -10  72 N16       30.54R WCI -24
$$

SDZ017-020-022-023-036>040-048>070-261800-
SOUTHEAST SOUTH DAKOTA

CITY           SKY/WX    TMP DP  RH WIND       PRES   REMARKS
SIOUX FALLS    MOSUNNY    1  -8  66 N14       30.50R WCI -17
HURON          SUNNY     -2 -10  69 N12       30.57S WCI -20
CHAMBERLAIN    PTSUNNY    3  -5  67 NW15      30.54R WCI -15
MITCHELL       SUNNY      3  -5  69 N15       30.57R WCI -16
YANKTON        SUNNY      5  -2  72 NW16G23   30.55R WCI -14
$$

ABBREVIATIONS USED IN REMARKS
   TC - TEMPERATURE IN CELSIUS
  WCI - WIND CHILL INDEX
   HX - HEAT INDEX
  VSB - VISIBILITY



USA.gov is the U.S. government's official web portal to all federal, state and local government web resources and services.